Weather History for KSFB - September, 2013

Change the Weather History Date:

Tuesday, September 10, 2013

  Actual Average Record
Temperature  
Mean Temperature 81 °F -  
Max Temperature 90 °F 88 °F 94 °F (1969)
Min Temperature 73 °F 71 °F 68 °F (1956)
Cooling Degree Days 16    
Growing Degree Days 31 (Base 50)    
Moisture  
Dew Point 71 °F    
Average Humidity 77    
Maximum Humidity 94    
Minimum Humidity 45    
Precipitation  
Precipitation 0.01 in - - ()
Sea Level Pressure  
Sea Level Pressure 30.07 in    
Wind  
Wind Speed 7 mph (ENE)    
Max Wind Speed 17 mph    
Max Gust Speed 21 mph    
Visibility 10 miles    
Events      
Averages and records for this station are not official NWS values.
T = Trace of Precipitation, MM = Missing Value Source: NWS Daily Summary

Daily Weather History Graph

Daily Weather History Graph

Search for Another Location

Airport or City:

Trip Planner

Search our weather history database for the weather conditions in past years. The results will help you decide how hot, cold, wet, or windy it might be!

Date:

Astronomy

Sep. 10, 2013 Rise Set
Actual Time 7:07 AM EDT 7:35 PM EDT
Civil Twilight 6:43 AM EDT 7:59 PM EDT
Nautical Twilight 6:15 AM EDT 8:27 PM EDT
Astronomical Twilight 5:47 AM EDT 8:55 PM EDT
Moon 12:03 PM EDT (9/10) 11:06 PM EDT (9/10)
Length of Visible Light 13h 15m
Length of Day
12h 28m
Waxing Crescent, 28% of the Moon is Illuminated
Sep 10
Waxing Crescent
Sep 12
First Quarter
Sep 19
Full
Sep 26
Last Quarter
Oct 4
New

Hourly Weather History & Observations

Time (EDT) Temp. Heat Index Dew Point Humidity Pressure Visibility Wind Dir Wind Speed Gust Speed Precip Events Conditions
12:53 AM 75.0 °F - 71.1 °F 87% 30.05 in 10.0 mi NNE 4.6 mph - N/A   Scattered Clouds
1:53 AM 73.9 °F - 72.0 °F 93% 30.05 in 10.0 mi NNE 4.6 mph - N/A   Clear
2:53 AM 75.0 °F - 72.0 °F 90% 30.04 in 10.0 mi Calm Calm - N/A   Clear
3:53 AM 73.9 °F - 72.0 °F 93% 30.03 in 10.0 mi NNE 4.6 mph - N/A   Partly Cloudy
4:53 AM 73.9 °F - 71.1 °F 91% 30.03 in 10.0 mi NE 3.5 mph - N/A   Partly Cloudy
5:53 AM 73.9 °F - 71.1 °F 91% 30.04 in 10.0 mi ENE 3.5 mph - N/A   Clear
6:53 AM 73.0 °F - 71.1 °F 93% 30.05 in 10.0 mi NE 4.6 mph - N/A   Clear
7:53 AM 73.9 °F - 71.1 °F 91% 30.07 in 10.0 mi ENE 4.6 mph - N/A   Clear
8:53 AM 79.0 °F - 72.0 °F 79% 30.09 in 10.0 mi ENE 5.8 mph - N/A   Partly Cloudy
9:53 AM 82.9 °F 87.5 °F 71.1 °F 67% 30.11 in 10.0 mi ENE 8.1 mph 18.4 mph N/A   Partly Cloudy
10:53 AM 84.9 °F 88.2 °F 68.0 °F 57% 30.12 in 10.0 mi ENE 13.8 mph - N/A   Partly Cloudy
11:53 AM 87.1 °F 90.6 °F 68.0 °F 53% 30.12 in 10.0 mi ENE 12.7 mph - N/A   Scattered Clouds
12:53 PM 89.1 °F 93.7 °F 69.1 °F 52% 30.11 in 10.0 mi East 16.1 mph - N/A   Partly Cloudy
1:53 PM 89.1 °F 91.0 °F 64.9 °F 45% 30.09 in 10.0 mi ENE 16.1 mph - N/A   Clear
2:53 PM 86.0 °F 90.1 °F 69.1 °F 57% 30.07 in 10.0 mi ENE 10.4 mph - N/A   Scattered Clouds
3:53 PM 89.1 °F 92.1 °F 66.9 °F 48% 30.06 in 10.0 mi East 15.0 mph 20.7 mph N/A   Scattered Clouds
4:53 PM 87.1 °F 92.0 °F 70.0 °F 57% 30.06 in 10.0 mi NE 17.3 mph - N/A   Scattered Clouds
5:53 PM 79.0 °F - 73.9 °F 84% 30.06 in 10.0 mi ENE 11.5 mph - 0.01 in   Scattered Clouds
6:53 PM 81.0 °F 86.2 °F 73.9 °F 79% 30.06 in 10.0 mi East 11.5 mph - N/A   Clear
7:53 PM 79.0 °F - 72.0 °F 79% 30.07 in 10.0 mi East 5.8 mph - N/A   Clear
8:53 PM 77.0 °F - 72.0 °F 84% 30.09 in 10.0 mi ENE 8.1 mph - N/A   Clear
9:53 PM 77.0 °F - 73.0 °F 88% 30.09 in 10.0 mi East 4.6 mph - N/A   Clear
10:53 PM 77.0 °F - 73.9 °F 90% 30.09 in 10.0 mi Calm Calm - N/A   Clear
11:53 PM 75.0 °F - 73.0 °F 94% 30.10 in 10.0 mi NE 3.5 mph - N/A   Clear